SL-16 DEB, 39863

Orbit data source: Space-Track

SL-16 DEB, 39863 is space debris in LEO originally from a launch on Fri, 25 Dec 1992 UTC launched from the Tyuratam Missile And Space Complex (TTMTR). Debris objects in space refer to the collection of defunct objects orbiting the Earth. Examples of debris include non-operational satellites, rocket bodies, and fragments generated from explosions, collisions, or faulty payload assembly.

Loading next visibility...
Identifier
39863, 1992-093LR
Orbit
LEO
Country
Flag of CISCIS
Related business
Manufacturer
Unknown
Mission
Spacecraft
Bus & Motor
Unknown
Mass
Unknown
Launch date (UTC)
1992-12-25 (33 years ago)
Launch vehicle
Unknown
Launch site
Tyuratam Missile And Space Complex (TTMTR)
Object type
Payload
Rocket body
Debris
Shape & HBR
Unknown shape, 0.1 m
Radar Cross Section
Small (<0.1 m²)

Expand to show TLE details & history
Last TLE update: 2 weeks ago

TLE from 2 weeks ago
0 SL-16 DEB
1 39863U 92093LR  25290.15996966  .00012235  00000-0  45055-2 0  9995
2 39863  70.9625  92.0434 0111654 178.7488 181.3944 14.29272467584385
Epoch: 2025-10-17T03:50Z
TLE epoch observation values (Epoch: 2025-10-17T03:50:21.378Z)
Latitude
-0.00006°
Longitude
8.54497°
Altitude
876.648 km
Speed
7.373 km/s
True Right ascension
06h 08m 10s
True Declination
0° 00' 00"
Sunlit
Object was in daylight at epoch
Visualization orbit readout
Latitude
Unknown
Longitude
Unknown
Altitude
Unknown
Speed
Unknown
Apparent Right ascension
Unknown
Apparent Declination
Unknown
Sunlit
N/A
Visualization observer readout
Local Sidereal Time
15:34:22
Azimuth
Unknown
Elevation
Unknown
Doppler factor
Unknown
Orbital elements
Apogee altitude
872.136 km
Perigee altitude
712.02 km
Semi-major axis
7,170.215 km
Eccentricity
0.01117
Inclination
70.9625°
RAAN
92.0434°
Arg. of periapsis
178.7488°
True anomaly
181.36369°
Mean anomaly
181.3944°
Eccentric anomaly
181.379°
Mean motion
3.57474 °/min
Orbital period
100.71 mins
BSTAR
0.0045055
Loading maneuver chart data...
Computing Atmospheric mass density...
Loading historical data...
Loading historical data...
Loading historical data...
Loading historical data...
Loading historical data...
Loading historical data...
Loading historical data...

Documentation

Showing up to 5 results
|